Location: Taukkyan
(23.1052°N, 94.0030°E)
Time: 11:10:33
(UTC+00:00)

NOSS 3-3 (C) - Pass Details

Date: 06 July 2020
Orbit: 823 x 1389 km, 63.4° (Epoch: 11 August)

Event Time Altitude Azimuth Distance (km) Brightness Sun altitude
Rises 14:13:31 0° 203° (SSW) 3,341 6.7 -20.5°
Reaches altitude 10° 14:15:54 10° 202° (SSW) 2,413 5.9 -20.9°
Maximum altitude 14:21:24 81° 116° (ESE) 862 3.6 -21.9°
Drops below altitude 10° 14:27:19 10° 29° (NNE) 2,591 6.3 -23.0°
Sets 14:29:57 0° 28° (NNE) 3,605 7.1 -23.5°
